• Join FlightAware (Why Join?)
  • Login
  • US Flag GB Flag 
05:36 EST


 

Airport Tracker/Info


-or-


 

Live Flight TrackerFlight Track Log ✈ GJS3706 ✈ 16-May-2013 ✈ KORD - KCVG

Flight Track Log - Related Links

Times and Time Zones

All times are in EDT time to prevent confusion due to time zone crossing. See the GJS3706 flight status page for this flight to view local times or setup timezone preferences in your user account.

Time Position Orientation Groundspeed Altitude Reporting Facility
EDT Latitude Longitude Course Direction KTS MPH feet Rate Location/Type
10:33 41.9833 -87.8667 180° South 161 185 2,000  Level Chicago TRACON
10:34 41.9500 -87.8333 143° Southeast 213 245 4,300 2,789 Climbing Chicago TRACON
10:35 41.8833 -87.8000 160° South 257 296 7,300 2,952 Climbing Chicago TRACON
10:36 41.8000 -87.7833 172° South 296 341 10,500 2,295 Climbing Chicago TRACON
10:37 41.5934 -87.4552 153° Southeast  Level Estimated
10:38 41.5155 -87.3655 166° South  Level Estimated
10:39 41.4483 -87.2883 180° South  Level Estimated
10:39 41.5881 -87.6756 159° South 356 410 15,600  Level Chicago Center
10:40 41.4856 -87.6114 155° Southeast 398 458 17,700 2,129 Climbing Chicago Center
10:41 41.3758 -87.5639 162° South 416 479 20,000 1,597 Climbing Chicago Center
10:42 41.2350 -87.5394 173° South 422 486 21,000 484 Climbing Chicago Center
10:43 41.1261 -87.4675 154° Southeast 444 511 21,000  Level Chicago Center
10:44 41.0233 -87.3814 148° Southeast 439 505 21,000  Level Chicago Center
10:45 40.9244 -87.2967 147° Southeast 428 493 21,000  Level Chicago Center
10:46 40.8272 -87.2144 147° Southeast 421 484 21,000  Level Chicago Center
10:47 40.7128 -87.1181 147° Southeast 410 472 21,000  Level Chicago Center
10:48 40.6264 -87.0450 147° Southeast 415 478 21,000  Level Chicago Center
10:49 40.5289 -86.9614 147° Southeast 419 482 21,000  Level Chicago Center
10:50 40.4106 -86.8628 148° Southeast 422 486 21,000  Level Chicago Center
10:51 40.3108 -86.7794 147° Southeast 426 490 21,000  Level Chicago Center
10:52 40.2119 -86.6972 148° Southeast 424 488 21,000  Level Chicago Center
10:53 40.1131 -86.6136 147° Southeast 423 487 21,000  Level Chicago Center
10:54 40.0319 -86.5475 148° Southeast 425 489 21,000  Level Indianapolis Center
10:55 39.9367 -86.4686 148° Southeast 411 473 21,000  Level Indianapolis Center
10:56 39.8425 -86.3911 148° Southeast 404 465 21,000 -180 Level Indianapolis Center
10:57 39.8000 -86.3000 121° Southeast 406 467 20,700 -1,347 Descending Indianapolis TRACON
10:58 39.7500 -86.1667 116° Southeast 414 476 18,800 -1,765 Descending Indianapolis TRACON
10:58 39.7336 -86.1242 117° Southeast 408 470 18,200 -1,724 Descending Indianapolis Center
10:59 39.6903 -85.9961 114° Southeast 392 451 16,300 -1,839 Descending Indianapolis Center
11:00 39.6489 -85.8733 114° Southeast 375 432 14,400 -1,161 Descending Indianapolis Center
11:01 39.6089 -85.7539 113° Southeast 367 422 13,900 -976 Descending Indianapolis Center
11:02 39.5617 -85.6164 114° Southeast 352 405 12,400 -1,317 Descending Indianapolis Center
11:03 39.5228 -85.5003 113° Southeast 352 405 11,200 -677 Descending Indianapolis Center
11:04 39.4700 -85.3956 123° Southeast 348 400 11,000 -387 Descending Indianapolis Center
11:05 39.4372 -85.2856 111° Southeast 327 376 10,400 -976 Descending Indianapolis Center
11:06 39.4122 -85.1781 107° East 316 364 9,000 -1,463 Descending Indianapolis Center
11:07 39.3875 -85.0758 107° East 303 349 7,400 -1,597 Descending Indianapolis Center
11:08 39.3622 -84.9778 108° East 292 336 5,700 -1,161 Descending Indianapolis Center
11:09 39.3339 -84.8744 109° East 274 315 5,000 -488 Descending Indianapolis Center
11:10 39.3333 -84.8333 91° East 239 275 5,000 -286 Level Cincinnati TRACON
11:11 39.3000 -84.7500 117° Southeast 244 281 4,600 -500 Descending Cincinnati TRACON
11:12 39.2667 -84.6833 123° Southeast 229 264 4,000 -400 Descending Cincinnati TRACON
11:13 39.2167 -84.6667 166° South 195 224 3,800 -650 Descending Cincinnati TRACON
11:14 39.1500 -84.6667 180° South 187 215 2,700 -1,000 Descending Cincinnati TRACON
11:15 39.1167 -84.6667 180° South 143 165 1,800 -900 Descending Cincinnati TRACON